Time,TemperatureF,DewpointF,PressureIn,WindDirection,WindDirectionDegrees,WindSpeedMPH,WindSpeedGustMPH,Humidity,HourlyPrecipIn,Conditions,Clouds,dailyrainin,SoftwareType,DateUTC
2013-03-07 00:00:00,33.4,26.3,18.39,SW,220,0.0,3.0,75,0.00,,,0.00,Wunderground v.1.15,2013-03-07 05:00:00,
2013-03-07 00:05:00,33.4,26.6,18.39,SW,220,0.0,3.0,76,0.00,,,0.00,Wunderground v.1.15,2013-03-07 05:05:00,
2013-03-07 00:10:00,33.2,26.5,18.39,SW,220,0.0,3.0,76,0.00,,,0.00,Wunderground v.1.15,2013-03-07 05:10:00,
2013-03-07 00:15:00,33.2,26.5,18.39,SW,220,0.0,3.0,76,0.00,,,0.00,Wunderground v.1.15,2013-03-07 05:15:00,
2013-03-07 00:20:00,33.2,26.5,18.39,SW,220,0.0,3.0,76,0.00,,,0.00,Wunderground v.1.15,2013-03-07 05:20:00,
2013-03-07 00:25:00,33.2,26.5,18.39,SW,220,0.0,3.0,76,0.00,,,0.00,Wunderground v.1.15,2013-03-07 05:25:00,
2013-03-07 00:35:00,33.0,26.3,18.39,SW,220,0.0,3.0,76,0.00,,,0.00,Wunderground v.1.15,2013-03-07 05:35:00,
2013-03-07 00:40:00,33.1,26.0,18.39,SW,220,1.0,3.0,75,0.00,,,0.00,Wunderground v.1.15,2013-03-07 05:40:00,
2013-03-07 00:45:00,33.2,26.1,18.39,SW,220,2.0,3.0,75,0.00,,,0.00,Wunderground v.1.15,2013-03-07 05:45:00,
2013-03-07 00:50:00,33.2,25.8,18.39,SW,220,2.0,4.0,74,0.00,,,0.00,Wunderground v.1.15,2013-03-07 05:50:00,
2013-03-07 00:55:00,33.2,25.8,18.39,SW,220,2.0,4.0,74,0.00,,,0.00,Wunderground v.1.15,2013-03-07 05:55:00,
2013-03-07 01:00:00,33.2,25.8,18.39,SW,220,1.0,5.0,74,0.00,,,0.00,Wunderground v.1.15,2013-03-07 06:00:00,
2013-03-07 01:10:00,33.1,25.7,18.39,SW,220,1.0,1.0,74,0.00,,,0.00,Wunderground v.1.15,2013-03-07 06:10:00,
2013-03-07 01:15:00,33.0,25.6,18.39,SW,220,0.0,5.0,74,0.00,,,0.00,Wunderground v.1.15,2013-03-07 06:15:00,
2013-03-07 01:20:00,33.0,25.3,18.39,SW,220,0.0,5.0,73,0.00,,,0.00,Wunderground v.1.15,2013-03-07 06:20:00,
2013-03-07 01:25:00,33.2,25.8,18.39,SW,220,1.0,5.0,74,0.00,,,0.00,Wunderground v.1.15,2013-03-07 06:25:00,
2013-03-07 01:30:00,33.1,25.7,18.39,SW,220,1.0,1.0,74,0.00,,,0.00,Wunderground v.1.15,2013-03-07 06:30:00,
2013-03-07 01:35:00,33.1,25.7,18.39,SW,219,1.0,5.0,74,0.00,,,0.00,Wunderground v.1.15,2013-03-07 06:35:00,
2013-03-07 01:40:00,33.1,25.7,18.39,SW,219,1.0,1.0,74,0.00,,,0.00,Wunderground v.1.15,2013-03-07 06:40:00,
2013-03-07 01:45:00,33.0,25.6,18.39,SW,216,1.0,5.0,74,0.00,,,0.00,Wunderground v.1.15,2013-03-07 06:45:00,
2013-03-07 01:50:00,32.9,25.8,18.39,SW,216,2.0,5.0,75,0.00,,,0.00,Wunderground v.1.15,2013-03-07 06:50:00,
2013-03-07 01:55:00,32.9,25.8,18.39,SW,217,2.0,5.0,75,0.00,,,0.00,Wunderground v.1.15,2013-03-07 06:55:00,
2013-03-07 02:00:00,32.9,26.2,18.39,SW,216,1.0,6.0,76,0.00,,,0.00,Wunderground v.1.15,2013-03-07 07:00:00,
2013-03-07 02:10:00,32.7,26.0,18.39,SW,216,1.0,1.0,76,0.00,,,0.00,Wunderground v.1.15,2013-03-07 07:10:00,
2013-03-07 02:15:00,32.7,26.0,18.39,SW,216,0.0,6.0,76,0.00,,,0.00,Wunderground v.1.15,2013-03-07 07:15:00,
2013-03-07 02:20:00,32.6,26.2,18.39,SW,216,0.0,6.0,77,0.00,,,0.00,Wunderground v.1.15,2013-03-07 07:20:00,
2013-03-07 02:25:00,32.6,26.2,18.39,SW,216,0.0,6.0,77,0.00,,,0.00,Wunderground v.1.15,2013-03-07 07:25:00,
2013-03-07 02:30:00,32.4,26.0,18.39,SW,216,0.0,6.0,77,0.00,,,0.00,Wunderground v.1.15,2013-03-07 07:30:00,
2013-03-07 02:35:00,32.3,26.2,18.39,SW,216,0.0,6.0,78,0.00,,,0.00,Wunderground v.1.15,2013-03-07 07:35:00,
2013-03-07 02:45:00,32.2,26.1,18.39,SW,216,0.0,6.0,78,0.00,,,0.00,Wunderground v.1.15,2013-03-07 07:45:00,
2013-03-07 02:50:00,32.2,26.1,18.39,SW,216,1.0,6.0,78,0.00,,,0.00,Wunderground v.1.15,2013-03-07 07:50:00,
2013-03-07 02:55:00,32.3,26.2,18.39,SW,215,1.0,6.0,78,0.00,,,0.00,Wunderground v.1.15,2013-03-07 07:55:00,
2013-03-07 03:00:00,32.3,25.9,18.39,SW,215,1.0,5.0,77,0.00,,,0.00,Wunderground v.1.15,2013-03-07 08:00:00,
2013-03-07 03:10:00,32.3,25.9,18.39,SW,215,0.0,5.0,77,0.00,,,0.00,Wunderground v.1.15,2013-03-07 08:10:00,
2013-03-07 03:15:00,32.3,25.9,18.39,SW,215,0.0,5.0,77,0.00,,,0.00,Wunderground v.1.15,2013-03-07 08:15:00,
2013-03-07 03:20:00,32.2,25.8,18.39,SW,215,0.0,5.0,77,0.00,,,0.00,Wunderground v.1.15,2013-03-07 08:20:00,
2013-03-07 03:25:00,32.2,25.8,18.39,SW,215,0.0,5.0,77,0.00,,,0.00,Wunderground v.1.15,2013-03-07 08:25:00,
2013-03-07 03:30:00,32.2,25.8,18.39,SW,215,1.0,5.0,77,0.00,,,0.00,Wunderground v.1.15,2013-03-07 08:30:00,
2013-03-07 03:35:00,32.2,25.8,18.39,SSW,213,2.0,5.0,77,0.00,,,0.00,Wunderground v.1.15,2013-03-07 08:35:00,
2013-03-07 03:40:00,32.1,25.7,18.39,SSW,213,2.0,2.0,77,0.00,,,0.00,Wunderground v.1.15,2013-03-07 08:40:00,
2013-03-07 03:45:00,32.1,25.7,18.39,SSW,213,2.0,3.0,77,0.00,,,0.00,Wunderground v.1.15,2013-03-07 08:45:00,
2013-03-07 04:00:00,32.0,25.9,18.39,SSW,213,0.0,5.0,78,0.00,,,0.00,Wunderground v.1.15,2013-03-07 09:00:00,
2013-03-07 04:10:00,32.0,25.9,18.39,SSW,213,1.0,1.0,78,0.00,,,0.00,Wunderground v.1.15,2013-03-07 09:10:00,
2013-03-07 04:20:00,31.7,25.9,18.39,SSW,213,1.0,5.0,79,0.00,,,0.00,Wunderground v.1.15,2013-03-07 09:20:00,
2013-03-07 04:25:00,31.6,25.8,18.39,SSW,213,1.0,5.0,79,0.00,,,0.00,Wunderground v.1.15,2013-03-07 09:25:00,
2013-03-07 04:30:00,31.7,25.9,18.39,SSW,213,2.0,2.0,79,0.00,,,0.00,Wunderground v.1.15,2013-03-07 09:30:00,
2013-03-07 04:35:00,31.7,25.9,18.39,SSW,213,2.0,5.0,79,0.00,,,0.00,Wunderground v.1.15,2013-03-07 09:35:00,
2013-03-07 04:40:00,31.7,25.9,18.39,SSW,213,1.0,1.0,79,0.00,,,0.00,Wunderground v.1.15,2013-03-07 09:40:00,
2013-03-07 04:45:00,31.6,25.8,18.39,SSW,213,0.0,5.0,79,0.00,,,0.00,Wunderground v.1.15,2013-03-07 09:45:00,
2013-03-07 04:55:00,31.5,26.0,18.39,SSW,213,0.0,5.0,80,0.00,,,0.00,Wunderground v.1.15,2013-03-07 09:55:00,
2013-03-07 05:00:00,31.5,25.7,18.39,SSW,213,1.0,1.0,79,0.00,,,0.00,Wunderground v.1.15,2013-03-07 10:00:00,
2013-03-07 05:10:00,31.4,25.9,18.39,SSW,213,0.0,5.0,80,0.00,,,0.00,Wunderground v.1.15,2013-03-07 10:10:00,
2013-03-07 05:15:00,31.4,25.6,18.39,SSW,213,1.0,5.0,79,0.00,,,0.00,Wunderground v.1.15,2013-03-07 10:15:00,
2013-03-07 05:20:00,31.4,25.6,18.39,SSW,213,1.0,1.0,79,0.00,,,0.00,Wunderground v.1.15,2013-03-07 10:20:00,
2013-03-07 05:25:00,31.4,25.6,18.39,SSW,213,0.0,5.0,79,0.00,,,0.00,Wunderground v.1.15,2013-03-07 10:25:00,
2013-03-07 05:35:00,31.2,25.7,18.39,SSW,213,0.0,5.0,80,0.00,,,0.00,Wunderground v.1.15,2013-03-07 10:35:00,
2013-03-07 05:40:00,31.1,25.7,18.39,SSW,213,0.0,5.0,80,0.00,,,0.00,Wunderground v.1.15,2013-03-07 10:40:00,
2013-03-07 05:45:00,31.0,25.6,18.39,SSW,213,0.0,5.0,80,0.00,,,0.00,Wunderground v.1.15,2013-03-07 10:45:00,
2013-03-07 05:50:00,31.0,25.9,18.39,SSW,213,0.0,5.0,81,0.00,,,0.00,Wunderground v.1.15,2013-03-07 10:50:00,
2013-03-07 05:55:00,31.0,25.9,18.39,SSW,213,0.0,5.0,81,0.00,,,0.00,Wunderground v.1.15,2013-03-07 10:55:00,
2013-03-07 06:00:00,30.9,25.8,18.39,SSW,213,0.0,1.0,81,0.00,,,0.00,Wunderground v.1.15,2013-03-07 11:00:00,
2013-03-07 06:10:00,31.0,25.9,18.39,SSW,213,1.0,2.0,81,0.00,,,0.00,Wunderground v.1.15,2013-03-07 11:10:00,
2013-03-07 06:15:00,31.0,25.9,18.39,SSW,213,1.0,2.0,81,0.00,,,0.00,Wunderground v.1.15,2013-03-07 11:15:00,
2013-03-07 06:25:00,30.8,25.7,18.39,SSW,213,0.0,1.0,81,0.00,,,0.00,Wunderground v.1.15,2013-03-07 11:25:00,
2013-03-07 06:30:00,30.7,25.6,18.39,SSW,213,0.0,1.0,81,0.00,,,0.00,Wunderground v.1.15,2013-03-07 11:30:00,
2013-03-07 06:35:00,30.6,25.5,18.39,SSW,213,0.0,2.0,81,0.00,,,0.00,Wunderground v.1.15,2013-03-07 11:35:00,
2013-03-07 06:45:00,30.8,25.7,18.39,SSW,213,0.0,2.0,81,0.00,,,0.00,Wunderground v.1.15,2013-03-07 11:45:00,
2013-03-07 06:50:00,30.9,25.8,18.39,SSW,213,0.0,1.0,81,0.00,,,0.00,Wunderground v.1.15,2013-03-07 11:50:00,
2013-03-07 07:00:00,31.1,26.0,18.39,SSW,213,1.0,3.0,81,0.00,,,0.00,Wunderground v.1.15,2013-03-07 12:00:00,
2013-03-07 07:10:00,31.2,26.0,18.39,SSW,213,0.0,3.0,81,0.00,,,0.00,Wunderground v.1.15,2013-03-07 12:10:00,
2013-03-07 07:20:00,31.3,26.1,18.39,SSE,162,1.0,3.0,81,0.00,,,0.00,Wunderground v.1.15,2013-03-07 12:20:00,
2013-03-07 07:25:00,31.4,26.2,18.39,ESE,111,2.0,3.0,81,0.00,,,0.00,Wunderground v.1.15,2013-03-07 12:25:00,
2013-03-07 07:30:00,31.4,26.5,18.39,ESE,111,2.0,2.0,82,0.00,,,0.00,Wunderground v.1.15,2013-03-07 12:30:00,
2013-03-07 07:40:00,31.4,26.5,18.39,SE,127,1.0,1.0,82,0.00,,,0.00,Wunderground v.1.15,2013-03-07 12:40:00,
2013-03-07 07:50:00,31.6,26.7,18.39,SE,126,1.0,1.0,82,0.00,,,0.00,Wunderground v.1.15,2013-03-07 12:50:00,
2013-03-07 07:55:00,31.7,26.8,18.39,SE,126,1.0,2.0,82,0.00,,,0.00,Wunderground v.1.15,2013-03-07 12:55:00,
2013-03-07 08:00:00,31.8,26.6,18.39,ESE,118,1.0,5.0,81,0.00,,,0.00,Wunderground v.1.15,2013-03-07 13:00:00,
2013-03-07 08:10:00,32.0,26.8,18.39,ESE,115,2.0,2.0,81,0.00,,,0.00,Wunderground v.1.15,2013-03-07 13:10:00,
2013-03-07 08:15:00,32.0,26.8,18.39,East,97,2.0,3.0,81,0.00,,,0.00,Wunderground v.1.15,2013-03-07 13:15:00,
2013-03-07 08:25:00,32.1,26.9,18.39,SE,139,1.0,3.0,81,0.00,,,0.00,Wunderground v.1.15,2013-03-07 13:25:00,
2013-03-07 08:30:00,32.1,26.9,18.39,SE,139,1.0,1.0,81,0.00,,,0.00,Wunderground v.1.15,2013-03-07 13:30:00,
2013-03-07 08:35:00,32.3,27.1,18.39,SE,139,1.0,5.0,81,0.00,,,0.00,Wunderground v.1.15,2013-03-07 13:35:00,
2013-03-07 08:40:00,32.5,27.3,18.39,SE,144,0.0,5.0,81,0.00,,,0.00,Wunderground v.1.15,2013-03-07 13:40:00,
2013-03-07 08:50:00,32.5,27.0,18.39,SE,144,1.0,1.0,80,0.00,,,0.00,Wunderground v.1.15,2013-03-07 13:50:00,
2013-03-07 08:55:00,32.6,26.8,18.39,SSE,165,1.0,2.0,79,0.00,,,0.00,Wunderground v.1.15,2013-03-07 13:55:00,
2013-03-07 09:00:00,32.6,26.5,18.39,South,175,2.0,2.0,78,0.00,,,0.00,Wunderground v.1.15,2013-03-07 14:00:00,
2013-03-07 09:10:00,32.7,26.3,18.39,South,179,2.0,5.0,77,0.00,,,0.00,Wunderground v.1.15,2013-03-07 14:10:00,
2013-03-07 09:15:00,32.8,26.1,18.39,South,180,2.0,5.0,76,0.00,,,0.00,Wunderground v.1.15,2013-03-07 14:15:00,
2013-03-07 09:20:00,32.8,26.4,18.39,SSW,205,2.0,2.0,77,0.00,,,0.00,Wunderground v.1.15,2013-03-07 14:20:00,
2013-03-07 09:25:00,33.0,26.6,18.39,SSW,205,1.0,5.0,77,0.00,,,0.00,Wunderground v.1.15,2013-03-07 14:25:00,
2013-03-07 09:30:00,33.1,26.4,18.39,SSW,202,1.0,6.0,76,0.00,,,0.00,Wunderground v.1.15,2013-03-07 14:30:00,
2013-03-07 09:35:00,33.2,26.5,18.39,SSW,202,2.0,6.0,76,0.00,,,0.00,Wunderground v.1.15,2013-03-07 14:35:00,
2013-03-07 09:40:00,33.5,26.7,18.39,SSW,202,1.0,5.0,76,0.00,,,0.00,Wunderground v.1.15,2013-03-07 14:40:00,
2013-03-07 09:45:00,33.4,26.3,18.39,SSW,209,2.0,5.0,75,0.00,,,0.00,Wunderground v.1.15,2013-03-07 14:45:00,
2013-03-07 09:50:00,33.5,26.1,18.39,SSW,204,2.0,5.0,74,0.00,,,0.00,Wunderground v.1.15,2013-03-07 14:50:00,
2013-03-07 10:00:00,33.6,26.2,18.39,SSW,193,2.0,2.0,74,0.00,,,0.00,Wunderground v.1.15,2013-03-07 15:00:00,
2013-03-07 10:10:00,34.2,26.8,18.39,SSE,154,1.0,7.0,74,0.00,,,0.00,Wunderground v.1.15,2013-03-07 15:10:00,
2013-03-07 10:15:00,34.5,27.1,18.39,SSE,149,2.0,7.0,74,0.00,,,0.00,Wunderground v.1.15,2013-03-07 15:15:00,
2013-03-07 10:25:00,34.6,26.5,18.39,SSE,149,2.0,7.0,72,0.00,,,0.00,Wunderground v.1.15,2013-03-07 15:25:00,
2013-03-07 10:30:00,34.8,26.7,18.39,SSE,149,1.0,7.0,72,0.00,,,0.00,Wunderground v.1.15,2013-03-07 15:30:00,
2013-03-07 10:35:00,34.9,26.8,18.39,SSE,149,1.0,7.0,72,0.00,,,0.00,Wunderground v.1.15,2013-03-07 15:35:00,
2013-03-07 10:40:00,34.7,26.6,18.39,SSE,153,1.0,1.0,72,0.00,,,0.00,Wunderground v.1.15,2013-03-07 15:40:00,
2013-03-07 10:45:00,34.5,26.7,18.39,SSE,154,1.0,2.0,73,0.00,,,0.00,Wunderground v.1.15,2013-03-07 15:45:00,
2013-03-07 10:50:00,34.4,27.0,18.39,SSE,165,1.0,1.0,74,0.00,,,0.00,Wunderground v.1.15,2013-03-07 15:50:00,
2013-03-07 10:55:00,34.3,26.5,18.39,South,179,2.0,3.0,73,0.00,,,0.00,Wunderground v.1.15,2013-03-07 15:55:00,
2013-03-07 11:00:00,34.3,26.9,18.39,South,179,3.0,3.0,74,0.00,,,0.00,Wunderground v.1.15,2013-03-07 16:00:00,
2013-03-07 11:10:00,34.3,26.9,18.39,South,180,2.0,8.0,74,0.00,,,0.00,Wunderground v.1.15,2013-03-07 16:10:00,
2013-03-07 11:15:00,34.2,26.4,18.39,South,180,3.0,8.0,73,0.00,,,0.00,Wunderground v.1.15,2013-03-07 16:15:00,
2013-03-07 11:20:00,34.3,26.9,18.39,South,180,3.0,3.0,74,0.00,,,0.00,Wunderground v.1.15,2013-03-07 16:20:00,
2013-03-07 11:25:00,34.3,26.9,18.39,South,182,2.0,8.0,74,0.00,,,0.00,Wunderground v.1.15,2013-03-07 16:25:00,
2013-03-07 11:35:00,34.6,26.8,18.39,SSE,164,1.0,8.0,73,0.00,,,0.00,Wunderground v.1.15,2013-03-07 16:35:00,
2013-03-07 11:40:00,35.0,26.9,18.39,East,100,2.0,8.0,72,0.00,,,0.00,Wunderground v.1.15,2013-03-07 16:40:00,
2013-03-07 11:45:00,35.1,26.6,18.39,ESE,113,3.0,8.0,71,0.00,,,0.00,Wunderground v.1.15,2013-03-07 16:45:00,
2013-03-07 11:50:00,35.3,26.8,18.39,East,97,4.0,8.0,71,0.00,,,0.00,Wunderground v.1.15,2013-03-07 16:50:00,
2013-03-07 11:55:00,35.5,27.0,18.39,ESE,121,4.0,8.0,71,0.00,,,0.00,Wunderground v.1.15,2013-03-07 16:55:00,
2013-03-07 12:00:00,35.4,26.9,18.39,ESE,110,4.0,4.0,71,0.00,,,0.00,Wunderground v.1.15,2013-03-07 17:00:00,
2013-03-07 12:10:00,35.5,27.0,18.39,SE,126,4.0,4.0,71,0.00,,,0.00,Wunderground v.1.15,2013-03-07 17:10:00,
2013-03-07 12:20:00,35.7,27.6,18.39,ESE,102,4.0,4.0,72,0.00,,,0.00,Wunderground v.1.15,2013-03-07 17:20:00,
2013-03-07 12:30:00,35.9,27.7,18.39,SE,144,3.0,3.0,72,0.00,,,0.00,Wunderground v.1.15,2013-03-07 17:30:00,
2013-03-07 12:40:00,36.2,28.0,18.39,SE,139,3.0,3.0,72,0.00,,,0.00,Wunderground v.1.15,2013-03-07 17:40:00,
2013-03-07 12:45:00,36.1,27.6,18.39,East,99,3.0,5.0,71,0.00,,,0.00,Wunderground v.1.15,2013-03-07 17:45:00,
2013-03-07 12:50:00,36.0,27.5,18.39,ESE,121,4.0,8.0,71,0.00,,,0.00,Wunderground v.1.15,2013-03-07 17:50:00,
2013-03-07 13:00:00,36.1,27.6,18.39,ESE,113,4.0,10.0,71,0.00,,,0.00,Wunderground v.1.15,2013-03-07 18:00:00,
2013-03-07 13:10:00,36.1,27.6,18.39,SE,139,4.0,10.0,71,0.00,,,0.00,Wunderground v.1.15,2013-03-07 18:10:00,
2013-03-07 13:15:00,36.2,27.7,18.39,SSE,161,4.0,10.0,71,0.00,,,0.00,Wunderground v.1.15,2013-03-07 18:15:00,
2013-03-07 13:20:00,36.0,27.5,18.39,ESE,123,4.0,4.0,71,0.00,,,0.00,Wunderground v.1.15,2013-03-07 18:20:00,
2013-03-07 13:25:00,36.1,27.9,18.39,ESE,120,4.0,10.0,72,0.00,,,0.00,Wunderground v.1.15,2013-03-07 18:25:00,
2013-03-07 13:30:00,35.9,27.7,18.39,SE,132,3.0,3.0,72,0.00,,,0.00,Wunderground v.1.15,2013-03-07 18:30:00,
2013-03-07 13:35:00,36.0,27.8,18.39,ESE,116,3.0,10.0,72,0.00,,,0.00,Wunderground v.1.15,2013-03-07 18:35:00,
2013-03-07 13:45:00,35.9,27.7,18.39,ESE,110,4.0,10.0,72,0.00,,,0.00,Wunderground v.1.15,2013-03-07 18:45:00,
2013-03-07 13:50:00,35.8,27.7,18.39,ESE,108,4.0,4.0,72,0.00,,,0.00,Wunderground v.1.15,2013-03-07 18:50:00,
2013-03-07 14:00:00,35.7,28.2,18.39,SE,128,3.0,3.0,74,0.00,,,0.00,Wunderground v.1.15,2013-03-07 19:00:00,
2013-03-07 14:10:00,35.6,28.1,18.39,ESE,117,4.0,4.0,74,0.00,,,0.00,Wunderground v.1.15,2013-03-07 19:10:00,
2013-03-07 14:20:00,35.5,28.7,18.39,SE,126,5.0,5.0,76,0.00,,,0.00,Wunderground v.1.15,2013-03-07 19:20:00,
2013-03-07 14:25:00,35.5,29.0,18.39,ESE,107,5.0,9.0,77,0.00,,,0.00,Wunderground v.1.15,2013-03-07 19:25:00,
2013-03-07 14:30:00,35.3,28.8,18.39,ESE,109,4.0,9.0,77,0.00,,,0.00,Wunderground v.1.15,2013-03-07 19:30:00,
2013-03-07 14:40:00,35.1,28.6,18.39,ESE,109,4.0,9.0,77,0.00,,,0.00,Wunderground v.1.15,2013-03-07 19:40:00,
2013-03-07 14:45:00,34.9,28.4,18.39,SE,139,5.0,9.0,77,0.00,,,0.00,Wunderground v.1.15,2013-03-07 19:45:00,
2013-03-07 14:50:00,34.8,28.6,18.39,ESE,105,5.0,5.0,78,0.00,,,0.00,Wunderground v.1.15,2013-03-07 19:50:00,
2013-03-07 14:55:00,34.9,29.0,18.39,ESE,122,4.0,9.0,79,0.00,,,0.00,Wunderground v.1.15,2013-03-07 19:55:00,
2013-03-07 15:00:00,34.9,29.4,18.39,ESE,103,4.0,10.0,80,0.00,,,0.00,Wunderground v.1.15,2013-03-07 20:00:00,
2013-03-07 15:10:00,34.9,29.4,18.39,East,99,5.0,10.0,80,0.00,,,0.00,Wunderground v.1.15,2013-03-07 20:10:00,
2013-03-07 15:15:00,35.1,29.2,18.39,SE,139,5.0,10.0,79,0.00,,,0.00,Wunderground v.1.15,2013-03-07 20:15:00,
2013-03-07 15:25:00,35.3,28.8,18.39,SSE,155,4.0,10.0,77,0.00,,,0.00,Wunderground v.1.15,2013-03-07 20:25:00,
2013-03-07 15:30:00,35.3,28.8,18.39,SE,144,4.0,4.0,77,0.00,,,0.00,Wunderground v.1.15,2013-03-07 20:30:00,
2013-03-07 15:35:00,35.4,28.9,18.39,ESE,115,4.0,7.0,77,0.00,,,0.00,Wunderground v.1.15,2013-03-07 20:35:00,
2013-03-07 15:40:00,35.6,28.8,18.39,ENE,78,5.0,10.0,76,0.00,,,0.00,Wunderground v.1.15,2013-03-07 20:40:00,
2013-03-07 15:45:00,35.4,27.9,18.39,SE,127,6.0,10.0,74,0.00,,,0.00,Wunderground v.1.15,2013-03-07 20:45:00,
2013-03-07 15:50:00,35.1,27.6,18.39,ESE,113,7.0,7.0,74,0.00,,,0.00,Wunderground v.1.15,2013-03-07 20:50:00,
2013-03-07 16:00:00,34.9,27.8,18.39,ESE,110,6.0,6.0,75,0.00,,,0.00,Wunderground v.1.15,2013-03-07 21:00:00,
2013-03-07 16:10:00,34.8,28.0,18.39,ESE,114,6.0,6.0,76,0.00,,,0.00,Wunderground v.1.15,2013-03-07 21:10:00,
2013-03-07 16:15:00,34.6,27.8,18.39,SE,126,6.0,13.0,76,0.00,,,0.00,Wunderground v.1.15,2013-03-07 21:15:00,
2013-03-07 16:20:00,34.4,27.3,18.39,ESE,117,7.0,13.0,75,0.00,,,0.00,Wunderground v.1.15,2013-03-07 21:20:00,
2013-03-07 16:30:00,34.1,26.7,18.39,East,101,6.0,13.0,74,0.00,,,0.00,Wunderground v.1.15,2013-03-07 21:30:00,
2013-03-07 16:35:00,33.9,26.8,18.39,ESE,122,7.0,13.0,75,0.00,,,0.00,Wunderground v.1.15,2013-03-07 21:35:00,
2013-03-07 16:40:00,33.8,27.0,18.39,East,97,6.0,13.0,76,0.00,,,0.00,Wunderground v.1.15,2013-03-07 21:40:00,
2013-03-07 16:45:00,33.8,27.0,18.39,ESE,117,6.0,13.0,76,0.00,,,0.00,Wunderground v.1.15,2013-03-07 21:45:00,
2013-03-07 16:55:00,33.6,26.8,18.39,ESE,116,6.0,9.0,76,0.00,,,0.00,Wunderground v.1.15,2013-03-07 21:55:00,
2013-03-07 17:00:00,33.3,26.2,18.39,East,99,7.0,13.0,75,0.00,,,0.00,Wunderground v.1.15,2013-03-07 22:00:00,
2013-03-07 17:10:00,33.1,26.4,18.39,East,86,7.0,13.0,76,0.00,,,0.00,Wunderground v.1.15,2013-03-07 22:10:00,
2013-03-07 17:20:00,32.8,26.4,18.39,ESE,106,7.0,13.0,77,0.00,,,0.00,Wunderground v.1.15,2013-03-07 22:20:00,
2013-03-07 17:25:00,32.6,25.9,18.39,East,92,8.0,13.0,76,0.00,,,0.00,Wunderground v.1.15,2013-03-07 22:25:00,
2013-03-07 17:35:00,32.5,25.8,18.39,SE,128,6.0,13.0,76,0.00,,,0.00,Wunderground v.1.15,2013-03-07 22:35:00,
2013-03-07 17:40:00,32.3,25.6,18.39,ESE,110,6.0,13.0,76,0.00,,,0.00,Wunderground v.1.15,2013-03-07 22:40:00,
2013-03-07 17:45:00,32.1,25.7,18.39,SE,124,6.0,13.0,77,0.00,,,0.00,Wunderground v.1.15,2013-03-07 22:45:00,
2013-03-07 17:50:00,32.0,25.6,18.39,SE,144,5.0,5.0,77,0.00,,,0.00,Wunderground v.1.15,2013-03-07 22:50:00,
2013-03-07 17:55:00,32.0,25.9,18.39,ESE,113,5.0,13.0,78,0.00,,,0.00,Wunderground v.1.15,2013-03-07 22:55:00,
2013-03-07 18:00:00,31.8,25.7,18.39,ESE,105,5.0,5.0,78,0.00,,,0.00,Wunderground v.1.15,2013-03-07 23:00:00,
2013-03-07 18:10:00,31.6,25.5,18.39,ESE,123,4.0,4.0,78,0.00,,,0.00,Wunderground v.1.15,2013-03-07 23:10:00,
2013-03-07 18:20:00,31.4,25.3,18.39,SSE,153,4.0,13.0,78,0.00,,,0.00,Wunderground v.1.15,2013-03-07 23:20:00,
2013-03-07 18:25:00,31.2,24.8,18.39,SE,131,5.0,13.0,77,0.00,,,0.00,Wunderground v.1.15,2013-03-07 23:25:00,
2013-03-07 18:30:00,31.2,24.5,18.39,SE,144,4.0,13.0,76,0.00,,,0.00,Wunderground v.1.15,2013-03-07 23:30:00,
2013-03-07 18:40:00,30.8,24.1,18.39,SSE,149,5.0,13.0,76,0.00,,,0.00,Wunderground v.1.15,2013-03-07 23:40:00,
2013-03-07 18:45:00,30.6,23.9,18.39,ESE,121,4.0,13.0,76,0.00,,,0.00,Wunderground v.1.15,2013-03-07 23:45:00,
2013-03-07 18:50:00,30.5,23.8,18.39,SE,130,4.0,4.0,76,0.00,,,0.00,Wunderground v.1.15,2013-03-07 23:50:00,
2013-03-07 18:55:00,30.3,23.6,18.39,SE,139,4.0,7.0,76,0.00,,,0.00,Wunderground v.1.15,2013-03-07 23:55:00,
2013-03-07 19:00:00,30.1,23.4,18.39,SE,139,4.0,9.0,76,0.00,,,0.00,Wunderground v.1.15,2013-03-08 00:00:00,
2013-03-07 19:10:00,29.9,23.6,18.39,East,99,4.0,9.0,77,0.00,,,0.00,Wunderground v.1.15,2013-03-08 00:10:00,
2013-03-07 19:15:00,29.8,23.5,18.39,SSE,149,4.0,9.0,77,0.00,,,0.00,Wunderground v.1.15,2013-03-08 00:15:00,
2013-03-07 19:20:00,29.7,23.7,18.39,ESE,120,3.0,9.0,78,0.00,,,0.00,Wunderground v.1.15,2013-03-08 00:20:00,
2013-03-07 19:25:00,29.5,23.8,18.39,SE,132,3.0,9.0,79,0.00,,,0.00,Wunderground v.1.15,2013-03-08 00:25:00,
2013-03-07 19:30:00,29.4,23.7,18.39,ESE,120,3.0,9.0,79,0.00,,,0.00,Wunderground v.1.15,2013-03-08 00:30:00,
2013-03-07 19:35:00,29.3,23.6,18.39,ESE,122,3.0,9.0,79,0.00,,,0.00,Wunderground v.1.15,2013-03-08 00:35:00,
2013-03-07 19:45:00,29.0,23.6,18.39,ESE,107,4.0,9.0,80,0.00,,,0.00,Wunderground v.1.15,2013-03-08 00:45:00,
2013-03-07 19:50:00,28.9,23.8,18.39,ESE,110,4.0,9.0,81,0.00,,,0.00,Wunderground v.1.15,2013-03-08 00:50:00,
2013-03-07 19:55:00,28.8,24.0,18.39,ESE,115,4.0,9.0,82,0.00,,,0.00,Wunderground v.1.15,2013-03-08 00:55:00,
2013-03-07 20:00:00,28.7,23.9,18.39,SE,124,3.0,9.0,82,0.00,,,0.00,Wunderground v.1.15,2013-03-08 01:00:00,
2013-03-07 20:10:00,28.7,24.5,18.39,East,92,4.0,9.0,84,0.00,,,0.00,Wunderground v.1.15,2013-03-08 01:10:00,
2013-03-07 20:20:00,28.6,24.4,18.39,ESE,105,3.0,9.0,84,0.00,,,0.00,Wunderground v.1.15,2013-03-08 01:20:00,
2013-03-07 20:25:00,28.6,24.4,18.39,ESE,105,4.0,9.0,84,0.00,,,0.00,Wunderground v.1.15,2013-03-08 01:25:00,
2013-03-07 20:30:00,28.5,24.6,18.39,ESE,109,5.0,5.0,85,0.00,,,0.00,Wunderground v.1.15,2013-03-08 01:30:00,
2013-03-07 20:40:00,28.2,24.6,18.39,ESE,104,4.0,9.0,86,0.00,,,0.00,Wunderground v.1.15,2013-03-08 01:40:00,
2013-03-07 20:50:00,28.0,24.4,18.39,ESE,104,4.0,9.0,86,0.00,,,0.00,Wunderground v.1.15,2013-03-08 01:50:00,
2013-03-07 21:00:00,27.8,24.4,18.39,East,99,6.0,6.0,87,0.00,,,0.00,Wunderground v.1.15,2013-03-08 02:00:00,
2013-03-07 21:10:00,27.7,24.3,18.39,ESE,111,4.0,4.0,87,0.00,,,0.00,Wunderground v.1.15,2013-03-08 02:10:00,
2013-03-07 21:20:00,27.7,24.3,18.39,East,99,4.0,4.0,87,0.00,,,0.00,Wunderground v.1.15,2013-03-08 02:20:00,
2013-03-07 21:25:00,27.8,24.4,18.39,ESE,106,4.0,9.0,87,0.00,,,0.00,Wunderground v.1.15,2013-03-08 02:25:00,
2013-03-07 21:30:00,27.8,24.4,18.39,ESE,117,4.0,4.0,87,0.00,,,0.00,Wunderground v.1.15,2013-03-08 02:30:00,
2013-03-07 21:35:00,27.8,24.7,18.39,ESE,117,4.0,9.0,88,0.00,,,0.00,Wunderground v.1.15,2013-03-08 02:35:00,
2013-03-07 21:40:00,27.8,24.7,18.39,SE,124,4.0,9.0,88,0.00,,,0.00,Wunderground v.1.15,2013-03-08 02:40:00,
2013-03-07 21:45:00,27.8,24.7,18.39,ESE,115,4.0,9.0,88,0.00,,,0.00,Wunderground v.1.15,2013-03-08 02:45:00,
2013-03-07 21:50:00,27.8,24.7,18.39,SE,130,4.0,9.0,88,0.00,,,0.00,Wunderground v.1.15,2013-03-08 02:50:00,
2013-03-07 21:55:00,27.7,24.6,18.39,ESE,105,5.0,9.0,88,0.00,,,0.00,Wunderground v.1.15,2013-03-08 02:55:00,
2013-03-07 22:01:00,27.7,24.6,18.39,East,87,5.0,9.0,88,0.00,,,0.00,Wunderground v.1.15,2013-03-08 03:01:00,
2013-03-07 22:10:00,27.7,24.6,18.39,ESE,109,5.0,5.0,88,0.00,,,0.00,Wunderground v.1.15,2013-03-08 03:10:00,
2013-03-07 22:15:00,27.8,24.7,18.39,ESE,117,5.0,6.0,88,0.00,,,0.00,Wunderground v.1.15,2013-03-08 03:15:00,
2013-03-07 22:20:00,27.8,24.7,18.39,ESE,114,4.0,4.0,88,0.00,,,0.00,Wunderground v.1.15,2013-03-08 03:20:00,
2013-03-07 22:25:00,27.8,24.7,18.39,ESE,107,5.0,6.0,88,0.00,,,0.00,Wunderground v.1.15,2013-03-08 03:25:00,
2013-03-07 22:30:00,27.7,24.6,18.39,ESE,102,5.0,5.0,88,0.00,,,0.00,Wunderground v.1.15,2013-03-08 03:30:00,
2013-03-07 22:35:00,27.6,24.5,18.39,ESE,106,5.0,9.0,88,0.00,,,0.00,Wunderground v.1.15,2013-03-08 03:35:00,
2013-03-07 22:40:00,27.5,24.7,18.39,ESE,115,5.0,5.0,89,0.00,,,0.00,Wunderground v.1.15,2013-03-08 03:40:00,
2013-03-07 22:45:00,27.5,24.7,18.39,ESE,104,5.0,9.0,89,0.00,,,0.00,Wunderground v.1.15,2013-03-08 03:45:00,
2013-03-07 22:55:00,27.5,24.4,18.39,ESE,103,5.0,9.0,88,0.00,,,0.00,Wunderground v.1.15,2013-03-08 03:55:00,
2013-03-07 23:01:00,27.5,24.4,18.39,SE,130,5.0,5.0,88,0.00,,,0.00,Wunderground v.1.15,2013-03-08 04:01:00,
2013-03-07 23:10:00,27.5,24.4,18.39,ESE,118,6.0,6.0,88,0.00,,,0.00,Wunderground v.1.15,2013-03-08 04:10:00,
2013-03-07 23:15:00,27.5,24.7,18.39,ESE,117,6.0,12.0,89,0.00,,,0.00,Wunderground v.1.15,2013-03-08 04:15:00,
2013-03-07 23:25:00,27.4,24.6,18.39,ESE,118,6.0,12.0,89,0.00,,,0.00,Wunderground v.1.15,2013-03-08 04:25:00,
2013-03-07 23:30:00,27.3,24.5,18.39,ESE,102,7.0,12.0,89,0.00,,,0.00,Wunderground v.1.15,2013-03-08 04:30:00,
2013-03-07 23:35:00,27.2,24.4,18.39,ESE,104,6.0,12.0,89,0.00,,,0.00,Wunderground v.1.15,2013-03-08 04:35:00,
2013-03-07 23:40:00,27.1,24.6,18.39,East,101,6.0,6.0,90,0.00,,,0.00,Wunderground v.1.15,2013-03-08 04:40:00,
2013-03-07 23:45:00,27.0,24.5,18.39,ESE,120,6.0,12.0,90,0.00,,,0.00,Wunderground v.1.15,2013-03-08 04:45:00,
2013-03-07 23:50:00,26.9,24.4,18.39,ESE,105,6.0,6.0,90,0.00,,,0.00,Wunderground v.1.15,2013-03-08 04:50:00,
2013-03-07 23:55:00,26.8,24.5,18.39,ESE,105,6.0,7.0,91,0.00,,,0.00,Wunderground v.1.15,2013-03-08 04:55:00,